Hourly Weather Barmaky

Today, 8 May, Saturday

Time Temperature Precipitation Wind Pressure Humidity
00:00 +7°C° 0.1 mm 3 mps 736 mmHg 93%
01:00 +6°C° 0.1 mm 4 mps 736 mmHg 93%
02:00 +6°C° 0 mm 4 mps 737 mmHg 93%
03:00 +5°C° 0.6 mm 4 mps 737 mmHg 93%
04:00 +5°C° 0.6 mm 4 mps 737 mmHg 93%
05:00 +4°C° 0.6 mm 4 mps 737 mmHg 93%
06:00 +3°C° 0.3 mm 5 mps 738 mmHg 93%
07:00 +3°C° 0.3 mm 6 mps 739 mmHg 94%
08:00 +2°C° 0 mm 7 mps 739 mmHg 94%
09:00 +2°C° 0.1 mm 7 mps 740 mmHg 93%
10:00 +2°C° 0.1 mm 7 mps 741 mmHg 93%
11:00 +2°C° 0.1 mm 7 mps 741 mmHg 92%
12:00 +3°C° 0.1 mm 7 mps 742 mmHg 86%
13:00 +4°C° 0.1 mm 7 mps 742 mmHg 79%
14:00 +5°C° 0.1 mm 6 mps 742 mmHg 73%
15:00 +7°C° 0.2 mm 6 mps 743 mmHg 70%
16:00 +7°C° 0.2 mm 6 mps 743 mmHg 68%
17:00 +8°C° 0.2 mm 6 mps 743 mmHg 65%
18:00 +6°C° 0.1 mm 5 mps 743 mmHg 71%
19:00 +5°C° 0.1 mm 4 mps 744 mmHg 77%
20:00 +3°C° 0.1 mm 3 mps 744 mmHg 83%
21:00 +4°C° 0 mm 2 mps 745 mmHg 85%
22:00 +3°C° 0 mm 2 mps 745 mmHg 87%
23:00 +3°C° 0 mm 2 mps 745 mmHg 89%

Tomorrow, 9 May, Sunday

Time Temperature Precipitation Wind Pressure Humidity
00:00 +2°C° 0 mm 2 mps 746 mmHg 90%
01:00 +2°C° 0 mm 2 mps 746 mmHg 91%
02:00 +1°C° 0 mm 3 mps 746 mmHg 92%
03:00 +1°C° 0 mm 3 mps 747 mmHg 93%
04:00 0°C° 0 mm 3 mps 747 mmHg 93%
05:00 0°C° 0 mm 3 mps 747 mmHg 94%
06:00 +2°C° 0 mm 3 mps 748 mmHg 86%
07:00 +4°C° 0 mm 3 mps 748 mmHg 79%
08:00 +7°C° 0 mm 3 mps 749 mmHg 71%
09:00 +9°C° 0 mm 3 mps 749 mmHg 64%
10:00 +10°C° 0 mm 2 mps 749 mmHg 57%
11:00 +13°C° 0 mm 2 mps 748 mmHg 49%
12:00 +13°C° 0 mm 2 mps 748 mmHg 47%
13:00 +14°C° 0 mm 2 mps 748 mmHg 45%
14:00 +15°C° 0 mm 2 mps 748 mmHg 42%
15:00 +15°C° 0 mm 2 mps 748 mmHg 43%
16:00 +15°C° 0 mm 1 mps 748 mmHg 44%
17:00 +16°C° 0 mm 1 mps 748 mmHg 45%
18:00 +14°C° 0 mm 2 mps 748 mmHg 51%
19:00 +12°C° 0 mm 2 mps 748 mmHg 57%
20:00 +9°C° 0 mm 3 mps 748 mmHg 63%
21:00 +8°C° 0 mm 3 mps 748 mmHg 66%
22:00 +8°C° 0 mm 3 mps 749 mmHg 68%
23:00 +7°C° 0 mm 3 mps 749 mmHg 70%

Day after tomorrow, 10 May, Monday

Time Temperature Precipitation Wind Pressure Humidity
00:00 +7°C° 0 mm 3 mps 749 mmHg 72%
01:00 +5°C° 0 mm 3 mps 749 mmHg 73%
02:00 +5°C° 0 mm 3 mps 749 mmHg 75%
03:00 +5°C° 0 mm 3 mps 749 mmHg 75%
04:00 +5°C° 0 mm 3 mps 749 mmHg 75%
05:00 +4°C° 0 mm 3 mps 749 mmHg 75%
06:00 +7°C° 0 mm 4 mps 749 mmHg 71%
07:00 +10°C° 0 mm 4 mps 749 mmHg 66%
08:00 +12°C° 0 mm 5 mps 749 mmHg 62%
09:00 +13°C° 0 mm 6 mps 749 mmHg 58%
10:00 +15°C° 0 mm 6 mps 749 mmHg 54%
11:00 +16°C° 0 mm 7 mps 749 mmHg 50%
12:00 +17°C° 0 mm 7 mps 749 mmHg 49%
13:00 +17°C° 0 mm 7 mps 749 mmHg 48%
14:00 +18°C° 0 mm 7 mps 748 mmHg 47%
15:00 +19°C° 0 mm 6 mps 748 mmHg 50%
16:00 +17°C° 0 mm 6 mps 748 mmHg 54%
17:00 +17°C° 0 mm 5 mps 748 mmHg 57%
18:00 +15°C° 0 mm 5 mps 748 mmHg 63%
19:00 +13°C° 0 mm 4 mps 748 mmHg 69%
20:00 +11°C° 0 mm 4 mps 748 mmHg 75%
21:00 +11°C° 0 mm 4 mps 748 mmHg 76%
22:00 +10°C° 0 mm 4 mps 748 mmHg 76%
23:00 +9°C° 0 mm 5 mps 748 mmHg 76%

11 May, Tuesday

Time Temperature Precipitation Wind Pressure Humidity
00:00 +8°C° 0 mm 5 mps 748 mmHg 76%
01:00 +8°C° 0 mm 5 mps 748 mmHg 76%
02:00 +7°C° 0 mm 5 mps 748 mmHg 76%
03:00 +7°C° 0 mm 5 mps 748 mmHg 77%
04:00 +6°C° 0 mm 5 mps 748 mmHg 78%
05:00 +6°C° 0 mm 4 mps 748 mmHg 79%
06:00 +8°C° 0 mm 5 mps 748 mmHg 74%
07:00 +9°C° 0 mm 5 mps 748 mmHg 69%
08:00 +11°C° 0 mm 6 mps 748 mmHg 65%
09:00 +13°C° 0 mm 6 mps 748 mmHg 58%
10:00 +15°C° 0 mm 6 mps 747 mmHg 52%
11:00 +16°C° 0 mm 6 mps 747 mmHg 46%
12:00 +17°C° 0 mm 6 mps 747 mmHg 45%
13:00 +19°C° 0 mm 6 mps 747 mmHg 44%
14:00 +19°C° 0 mm 6 mps 746 mmHg 43%
15:00 +19°C° 0 mm 6 mps 746 mmHg 46%
16:00 +19°C° 0 mm 5 mps 745 mmHg 50%
17:00 +19°C° 0 mm 5 mps 745 mmHg 54%
18:00 +17°C° 0 mm 4 mps 745 mmHg 61%
19:00 +14°C° 0 mm 4 mps 745 mmHg 69%
20:00 +12°C° 0 mm 3 mps 744 mmHg 76%
21:00 +11°C° 0 mm 3 mps 744 mmHg 79%
22:00 +10°C° 0 mm 3 mps 744 mmHg 81%
23:00 +10°C° 0 mm 3 mps 744 mmHg 84%

12 May, Wednesday

Time Temperature Precipitation Wind Pressure Humidity
00:00 +10°C° 0 mm 3 mps 744 mmHg 88%
01:00 +9°C° 0 mm 3 mps 744 mmHg 91%
02:00 +9°C° 0 mm 3 mps 743 mmHg 95%
03:00 +9°C° 0 mm 3 mps 743 mmHg 96%
04:00 +8°C° 0 mm 4 mps 743 mmHg 96%
05:00 +7°C° 0 mm 4 mps 743 mmHg 97%
06:00 +10°C° 0 mm 4 mps 743 mmHg 88%
07:00 +11°C° 0 mm 4 mps 743 mmHg 79%
08:00 +12°C° 0 mm 5 mps 742 mmHg 71%
09:00 +13°C° 0 mm 5 mps 742 mmHg 66%
10:00 +14°C° 0 mm 5 mps 742 mmHg 62%
11:00 +15°C° 0 mm 6 mps 741 mmHg 58%
12:00 +14°C° 0 mm 5 mps 741 mmHg 63%
13:00 +13°C° 0 mm 5 mps 741 mmHg 67%
14:00 +12°C° 0 mm 4 mps 741 mmHg 72%
15:00 +12°C° 0.1 mm 4 mps 740 mmHg 73%
16:00 +12°C° 0.1 mm 4 mps 740 mmHg 74%
17:00 +12°C° 0.1 mm 4 mps 740 mmHg 75%
18:00 +11°C° 0.1 mm 4 mps 740 mmHg 80%
19:00 +10°C° 0.1 mm 3 mps 739 mmHg 84%
20:00 +9°C° 0.1 mm 3 mps 739 mmHg 89%
21:00 +8°C° 0 mm 3 mps 739 mmHg 91%
22:00 +6°C° 0 mm 4 mps 739 mmHg 92%
23:00 +6°C° 0 mm 4 mps 739 mmHg 94%

13 May, Thursday

Time Temperature Precipitation Wind Pressure Humidity
00:00 +5°C° 0 mm 4 mps 738 mmHg 95%
01:00 +5°C° 0 mm 4 mps 738 mmHg 96%
02:00 +5°C° 0 mm 4 mps 738 mmHg 97%
03:00 +5°C° 0 mm 4 mps 738 mmHg 96%
04:00 +5°C° 0 mm 4 mps 737 mmHg 95%
05:00 +5°C° 0 mm 5 mps 737 mmHg 94%
06:00 +6°C° 0 mm 5 mps 737 mmHg 91%
07:00 +6°C° 0 mm 5 mps 737 mmHg 88%
08:00 +7°C° 0 mm 5 mps 737 mmHg 85%
09:00 +7°C° 0.2 mm 5 mps 736 mmHg 85%
10:00 +7°C° 0.2 mm 5 mps 736 mmHg 85%
11:00 +7°C° 0.2 mm 5 mps 736 mmHg 85%
12:00 +7°C° 0.8 mm 5 mps 736 mmHg 88%
13:00 +7°C° 0.8 mm 6 mps 735 mmHg 92%
14:00 +7°C° 0.8 mm 6 mps 735 mmHg 95%
15:00 +7°C° 0.8 mm 6 mps 735 mmHg 95%
16:00 +8°C° 0.8 mm 6 mps 735 mmHg 95%
17:00 +8°C° 0.8 mm 6 mps 735 mmHg 95%
18:00 +8°C° 0.4 mm 5 mps 735 mmHg 95%
19:00 +8°C° 0.4 mm 5 mps 735 mmHg 96%
20:00 +8°C° 0.4 mm 4 mps 735 mmHg 96%
21:00 +8°C° 0.1 mm 4 mps 735 mmHg 96%
22:00 +9°C° 0.1 mm 3 mps 735 mmHg 97%
23:00 +9°C° 0.1 mm 2 mps 735 mmHg 97%
Show more